Location: Unspecified
(50.1700°N, 6.8600°E)
Time: 04:05:58
(UTC+00:00)

CZ-2C R/B - Pass Details

Date: 24 January 2019
Orbit: 640 x 705 km, 98.4° (Epoch: 23 October)

Event Time Altitude Azimuth Distance (km) Brightness Sun altitude
Rises 05:12:05 0° 162° (SSE) 3,080 7.5 -19.8°
Reaches altitude 10° 05:14:20 10° 162° (SSE) 2,162 6.6 -19.4°
Maximum altitude 05:19:05 86° 74° (ENE) 704 3.8 -18.7°
Drops below altitude 10° 05:23:48 10° 346° (NNW) 2,146 6.1 -17.9°
Enters shadow 05:25:29 - 346° (NNW) 2,830 6.7 -17.7°
